Погода в Туенкуанге

Вьетнам     21°51′06″N   105°12′45″E
темп.,
°C
ветер,
м/с
пор.,
м/с
влажн.,
%
обл.,
%
осадки,
мм/ч
давл.,
гПа
погр.,
м
23 января, вс
вс2301:00+18св1192100 0.1 101120
04:00+18ссв1193100 0.0 101021
07:00+18с1193100 0.0 101120
10:00+20ссз0083100 0.0 1013310
13:00+23ссз116990 0.0 1010712
16:00+24всв11634 0.0 1008800
19:00+20св11825 0.0 101011
22:00+19в11905 0.0 101111
24 января, пн
пн2401:00+18св119535 0.0 101111
04:00+18с0094100 0.0 101024
07:00+18св0094100 0.2 101227
10:00+20с0189100 0.2 1014205
13:00+22в018198 0.3 1011523
16:00+24вюв127073 0.1 1009946
19:00+22в117999 0.1 101013
22:00+20ю118831 0.1 101220
25 января, вт
вт2501:00+20ю1293100 0.3 101266
04:00+19ю1294100 0.4 101173
07:00+19ююв0194100 0.9 101342
10:00+21ююв138590 0.6 1015360
13:00+24ююв236937 0.9 10111021
16:00+24юв346842 0.1 1009960
19:00+20юв118848 0.2 101115
22:00+19ююв129384 0.1 101362
26 января, ср
ср2601:00+19вюв1393100 0.2 1013167
04:00+19юв1193100 0.3 101268
07:00+19юв1195100 0.8 101354
10:00+20ююв1387100 0.4 1015415
13:00+24юв246755 0.8 10111164
16:00+24юв346751 0.2 1009919
19:00+21всв138697 0.3 1011100
22:00+21в1189100 0.1 101354
27 января, чт
чт2701:00+20ююв1291100 0.5 1012116
04:00+20юв1295100 0.8 1011107
07:00+20юв1195100 1.8 1013100
10:00+21вюв139086 0.2 1014393
13:00+24ююв347179 0.7 10111071
16:00+24юв347284 0.2 1009955
19:00+21всв22873 0.4 101155
22:00+21в1291100 0.0 1012134